Wetterdaten: Samstag, 20.02.2010
Datum Zeit Temp. A. Feuchte A. Luftdruck Regen Wind Richtung Richtung Sonnenschein UV Solar Windben
20.02.2010 00:00 2,1 C 82 % 994,6 hPa 0,0 mm 8,0 km/h (2 Bft) W-SW 247 0 min 0 UV-I 0 W/m 20,9 km/h (4 Bft)
20.02.2010 00:10 2,1 C 82 % 994,7 hPa 0,0 mm 6,4 km/h (2 Bft) W-SW 247 0 min 0 UV-I 0 W/m 20,9 km/h (4 Bft)
20.02.2010 00:20 2,1 C 81 % 994,8 hPa 0,0 mm 6,4 km/h (2 Bft) W-SW 247 0 min 0 UV-I 0 W/m 24,1 km/h (4 Bft)
20.02.2010 00:30 2,0 C 81 % 995,0 hPa 0,0 mm 8,0 km/h (2 Bft) W-SW 247 0 min 0 UV-I 0 W/m 20,9 km/h (4 Bft)
20.02.2010 00:40 1,9 C 81 % 995,0 hPa 0,0 mm 4,8 km/h (1 Bft) SW 225 0 min 0 UV-I 0 W/m 17,7 km/h (3 Bft)
20.02.2010 00:50 1,9 C 81 % 995,0 hPa 0,0 mm 4,8 km/h (1 Bft) SW 225 0 min 0 UV-I 0 W/m 17,7 km/h (3 Bft)
20.02.2010 01:00 1,8 C 81 % 995,0 hPa 0,0 mm 4,8 km/h (1 Bft) W-SW 247 0 min 0 UV-I 0 W/m 12,9 km/h (3 Bft)
20.02.2010 01:10 1,6 C 81 % 995,1 hPa 0,0 mm 3,2 km/h (1 Bft) W-SW 247 0 min 0 UV-I 0 W/m 9,7 km/h (2 Bft)
20.02.2010 01:20 1,4 C 81 % 995,2 hPa 0,0 mm 1,6 km/h (1 Bft) SW 225 0 min 0 UV-I 0 W/m 11,3 km/h (2 Bft)
20.02.2010 01:30 1,3 C 81 % 995,1 hPa 0,0 mm 1,6 km/h (1 Bft) SW 225 0 min 0 UV-I 0 W/m 8,0 km/h (2 Bft)
20.02.2010 01:40 1,2 C 82 % 995,1 hPa 0,0 mm 1,6 km/h (1 Bft) W-SW 247 0 min 0 UV-I 0 W/m 9,7 km/h (2 Bft)
20.02.2010 01:50 1,1 C 82 % 995,1 hPa 0,0 mm 1,6 km/h (1 Bft) SW 225 0 min 0 UV-I 0 W/m 8,0 km/h (2 Bft)
20.02.2010 02:00 0,9 C 82 % 995,1 hPa 0,0 mm 1,6 km/h (1 Bft) S-SW 202 0 min 0 UV-I 0 W/m 6,4 km/h (2 Bft)
20.02.2010 02:10 0,8 C 82 % 995,1 hPa 0,0 mm 1,6 km/h (1 Bft) SW 225 0 min 0 UV-I 0 W/m 6,4 km/h (2 Bft)
20.02.2010 02:20 0,7 C 82 % 995,2 hPa 0,0 mm 0,0 km/h (0 Bft) SW 225 0 min 0 UV-I 0 W/m 4,8 km/h (1 Bft)
20.02.2010 02:30 0,6 C 82 % 995,2 hPa 0,0 mm 0,0 km/h (0 Bft) S-SW 202 0 min 0 UV-I 0 W/m 3,2 km/h (1 Bft)
20.02.2010 02:40 0,5 C 82 % 995,2 hPa 0,0 mm 0,0 km/h (0 Bft) SW 225 0 min 0 UV-I 0 W/m 4,8 km/h (1 Bft)
20.02.2010 02:50 0,4 C 82 % 995,1 hPa 0,0 mm 0,0 km/h (0 Bft) SW 225 0 min 0 UV-I 0 W/m 3,2 km/h (1 Bft)
20.02.2010 03:00 0,3 C 82 % 995,2 hPa 0,0 mm 0,0 km/h (0 Bft) SW 225 0 min 0 UV-I 0 W/m 3,2 km/h (1 Bft)
20.02.2010 03:10 0,2 C 82 % 995,1 hPa 0,0 mm 0,0 km/h (0 Bft) S-SW 202 0 min 0 UV-I 0 W/m 4,8 km/h (1 Bft)
20.02.2010 03:20 0,1 C 83 % 995,2 hPa 0,0 mm 1,6 km/h (1 Bft) SW 225 0 min 0 UV-I 0 W/m 6,4 km/h (2 Bft)
20.02.2010 03:30 0,0 C 83 % 995,1 hPa 0,0 mm 1,6 km/h (1 Bft) S-SW 202 0 min 0 UV-I 0 W/m 8,0 km/h (2 Bft)
20.02.2010 03:40 0,0 C 84 % 995,1 hPa 0,0 mm 1,6 km/h (1 Bft) SW 225 0 min 0 UV-I 0 W/m 8,0 km/h (2 Bft)
20.02.2010 03:50 0,1 C 84 % 995,0 hPa 0,0 mm 1,6 km/h (1 Bft) S-SW 202 0 min 0 UV-I 0 W/m 6,4 km/h (2 Bft)
20.02.2010 04:00 0,2 C 85 % 995,0 hPa 0,0 mm 1,6 km/h (1 Bft) SW 225 0 min 0 UV-I 0 W/m 4,8 km/h (1 Bft)
20.02.2010 04:10 0,3 C 85 % 995,0 hPa 0,0 mm 3,2 km/h (1 Bft) S-SW 202 0 min 0 UV-I 0 W/m 9,7 km/h (2 Bft)
20.02.2010 04:20 0,4 C 85 % 994,9 hPa 0,0 mm 3,2 km/h (1 Bft) S-SW 202 0 min 0 UV-I 0 W/m 9,7 km/h (2 Bft)
20.02.2010 04:30 0,6 C 85 % 995,0 hPa 0,0 mm 1,6 km/h (1 Bft) SW 225 0 min 0 UV-I 0 W/m 8,0 km/h (2 Bft)
20.02.2010 04:40 0,7 C 84 % 995,0 hPa 0,0 mm 3,2 km/h (1 Bft) SW 225 0 min 0 UV-I 0 W/m 11,3 km/h (2 Bft)
20.02.2010 04:50 0,7 C 84 % 994,9 hPa 0,0 mm 3,2 km/h (1 Bft) SW 225 0 min 0 UV-I 0 W/m 9,7 km/h (2 Bft)
20.02.2010 05:00 0,7 C 83 % 994,9 hPa 0,0 mm 4,8 km/h (1 Bft) W-SW 247 0 min 0 UV-I 0 W/m 14,5 km/h (3 Bft)
20.02.2010 05:10 0,7 C 83 % 994,9 hPa 0,0 mm 3,2 km/h (1 Bft) SW 225 0 min 0 UV-I 0 W/m 14,5 km/h (3 Bft)
20.02.2010 05:20 0,7 C 82 % 994,9 hPa 0,0 mm 4,8 km/h (1 Bft) SW 225 0 min 0 UV-I 0 W/m 12,9 km/h (3 Bft)
20.02.2010 05:30 0,7 C 82 % 994,9 hPa 0,0 mm 3,2 km/h (1 Bft) SW 225 0 min 0 UV-I 0 W/m 14,5 km/h (3 Bft)
20.02.2010 05:40 0,7 C 82 % 994,9 hPa 0,0 mm 3,2 km/h (1 Bft) SW 225 0 min 0 UV-I 0 W/m 11,3 km/h (2 Bft)
20.02.2010 05:50 0,7 C 82 % 994,9 hPa 0,0 mm 3,2 km/h (1 Bft) SW 225 0 min 0 UV-I 0 W/m 11,3 km/h (2 Bft)
20.02.2010 06:00 0,7 C 82 % 994,9 hPa 0,0 mm 3,2 km/h (1 Bft) SW 225 0 min 0 UV-I 0 W/m 17,7 km/h (3 Bft)
20.02.2010 06:10 0,7 C 81 % 994,9 hPa 0,0 mm 3,2 km/h (1 Bft) SW 225 0 min 0 UV-I 0 W/m 14,5 km/h (3 Bft)
20.02.2010 06:20 0,7 C 81 % 994,8 hPa 0,0 mm 3,2 km/h (1 Bft) SW 225 0 min 0 UV-I 0 W/m 8,0 km/h (2 Bft)
20.02.2010 06:30 0,6 C 81 % 994,9 hPa 0,0 mm 3,2 km/h (1 Bft) W-SW 247 0 min 0 UV-I 0 W/m 8,0 km/h (2 Bft)
20.02.2010 06:40 0,6 C 81 % 994,9 hPa 0,0 mm 1,6 km/h (1 Bft) SW 225 0 min 0 UV-I 0 W/m 8,0 km/h (2 Bft)
20.02.2010 06:50 0,5 C 81 % 994,8 hPa 0,0 mm 1,6 km/h (1 Bft) SW 225 0 min 0 UV-I 0 W/m 9,7 km/h (2 Bft)
20.02.2010 07:00 0,5 C 81 % 994,8 hPa 0,0 mm 1,6 km/h (1 Bft) SW 225 0 min 0 UV-I 0 W/m 8,0 km/h (2 Bft)
20.02.2010 07:10 0,4 C 82 % 994,8 hPa 0,0 mm 3,2 km/h (1 Bft) SW 225 0 min 0 UV-I 0 W/m 9,7 km/h (2 Bft)
20.02.2010 07:20 0,4 C 82 % 995,0 hPa 0,0 mm 1,6 km/h (1 Bft) SW 225 0 min 0 UV-I 0 W/m 11,3 km/h (2 Bft)
20.02.2010 07:30 0,4 C 82 % 995,0 hPa 0,0 mm 1,6 km/h (1 Bft) SW 225 0 min 0 UV-I 0 W/m 6,4 km/h (2 Bft)
20.02.2010 07:40 0,3 C 81 % 995,0 hPa 0,0 mm 1,6 km/h (1 Bft) SW 225 0 min 0 UV-I 9 W/m 6,4 km/h (2 Bft)
20.02.2010 07:50 0,3 C 82 % 995,0 hPa 0,0 mm 1,6 km/h (1 Bft) SW 225 0 min 0 UV-I 16 W/m 8,0 km/h (2 Bft)
20.02.2010 08:00 0,2 C 82 % 995,0 hPa 0,0 mm 0,7 km/h (0 Bft) W-SW 245 0 min 0 UV-I 21 W/m 6,4 km/h (2 Bft)
20.02.2010 08:10 0,2 C 82 % 995,1 hPa 0,0 mm 1,6 km/h (1 Bft) S-SW 202 0 min 0 UV-I 39 W/m 6,4 km/h (2 Bft)
20.02.2010 08:20 0,2 C 82 % 995,0 hPa 0,0 mm 1,6 km/h (1 Bft) SW 225 10 min 0 UV-I 93 W/m 8,0 km/h (2 Bft)
20.02.2010 08:30 0,3 C 83 % 995,1 hPa 0,0 mm 1,6 km/h (1 Bft) SW 225 0 min 0 UV-I 72 W/m 8,0 km/h (2 Bft)
20.02.2010 08:40 0,5 C 83 % 995,1 hPa 0,0 mm 3,2 km/h (1 Bft) SW 225 10 min 0 UV-I 132 W/m 11,3 km/h (2 Bft)
20.02.2010 08:50 0,9 C 81 % 995,0 hPa 0,0 mm 3,2 km/h (1 Bft) S-SW 202 10 min 0 UV-I 192 W/m 11,3 km/h (2 Bft)
20.02.2010 09:00 1,4 C 80 % 995,0 hPa 0,0 mm 1,6 km/h (1 Bft) S-SW 202 0 min 0 UV-I 88 W/m 6,4 km/h (2 Bft)
20.02.2010 09:10 1,5 C 79 % 995,1 hPa 0,0 mm 1,6 km/h (1 Bft) SW 225 0 min 0 UV-I 93 W/m 6,4 km/h (2 Bft)
20.02.2010 09:20 1,5 C 79 % 995,2 hPa 0,0 mm 3,2 km/h (1 Bft) W-SW 247 10 min 1 UV-I 223 W/m 11,3 km/h (2 Bft)
20.02.2010 09:30 1,7 C 79 % 995,2 hPa 0,0 mm 1,6 km/h (1 Bft) SW 225 0 min 1 UV-I 118 W/m 8,0 km/h (2 Bft)
20.02.2010 09:40 1,9 C 78 % 995,3 hPa 0,0 mm 3,2 km/h (1 Bft) SW 225 10 min 1 UV-I 404 W/m 11,3 km/h (2 Bft)
20.02.2010 09:50 2,5 C 76 % 995,4 hPa 0,0 mm 6,4 km/h (2 Bft) SW 225 10 min 1 UV-I 422 W/m 19,3 km/h (3 Bft)
20.02.2010 10:00 2,6 C 76 % 995,6 hPa 0,0 mm 6,4 km/h (2 Bft) SW 225 0 min 0 UV-I 62 W/m 16,1 km/h (3 Bft)
20.02.2010 10:10 2,6 C 76 % 995,6 hPa 0,0 mm 6,4 km/h (2 Bft) SW 225 0 min 0 UV-I 72 W/m 16,1 km/h (3 Bft)
20.02.2010 10:20 2,6 C 77 % 995,6 hPa 0,0 mm 4,8 km/h (1 Bft) SW 225 0 min 0 UV-I 60 W/m 19,3 km/h (3 Bft)
20.02.2010 10:30 2,5 C 77 % 995,6 hPa 0,0 mm 4,8 km/h (1 Bft) SW 225 0 min 1 UV-I 123 W/m 12,9 km/h (3 Bft)
20.02.2010 10:40 2,6 C 77 % 995,6 hPa 0,0 mm 6,4 km/h (2 Bft) SW 225 10 min 1 UV-I 461 W/m 16,1 km/h (3 Bft)
20.02.2010 10:50 3,2 C 75 % 995,7 hPa 0,0 mm 6,4 km/h (2 Bft) SW 225 10 min 1 UV-I 526 W/m 20,9 km/h (4 Bft)
20.02.2010 11:00 3,2 C 75 % 995,8 hPa 0,0 mm 6,4 km/h (2 Bft) SW 225 10 min 1 UV-I 288 W/m 17,7 km/h (3 Bft)
20.02.2010 11:10 3,2 C 75 % 995,8 hPa 0,0 mm 6,4 km/h (2 Bft) W-SW 247 0 min 1 UV-I 185 W/m 22,5 km/h (4 Bft)
20.02.2010 11:20 3,2 C 75 % 995,9 hPa 0,0 mm 8,0 km/h (2 Bft) W-SW 247 10 min 1 UV-I 278 W/m 22,5 km/h (4 Bft)
20.02.2010 11:30 3,3 C 74 % 995,9 hPa 0,0 mm 6,4 km/h (2 Bft) SW 225 10 min 1 UV-I 262 W/m 19,3 km/h (3 Bft)
20.02.2010 11:40 3,4 C 74 % 995,9 hPa 0,0 mm 6,4 km/h (2 Bft) W-SW 247 10 min 1 UV-I 258 W/m 19,3 km/h (3 Bft)
20.02.2010 11:50 3,4 C 73 % 996,0 hPa 0,0 mm 9,7 km/h (2 Bft) W-SW 247 10 min 1 UV-I 257 W/m 20,9 km/h (4 Bft)
20.02.2010 12:00 3,6 C 71 % 996,0 hPa 0,0 mm 11,3 km/h (2 Bft) W-SW 247 10 min 1 UV-I 330 W/m 25,7 km/h (4 Bft)
20.02.2010 12:10 3,8 C 71 % 996,0 hPa 0,0 mm 8,0 km/h (2 Bft) W-SW 247 10 min 1 UV-I 443 W/m 20,9 km/h (4 Bft)
20.02.2010 12:20 3,8 C 71 % 995,9 hPa 0,0 mm 8,0 km/h (2 Bft) W 270 0 min 1 UV-I 202 W/m 19,3 km/h (3 Bft)
20.02.2010 12:30 3,6 C 71 % 995,9 hPa 0,0 mm 8,0 km/h (2 Bft) W-SW 247 0 min 1 UV-I 139 W/m 20,9 km/h (4 Bft)
20.02.2010 12:40 3,6 C 72 % 995,8 hPa 0,0 mm 8,0 km/h (2 Bft) W 270 10 min 2 UV-I 613 W/m 24,1 km/h (4 Bft)
20.02.2010 12:50 4,2 C 70 % 995,7 hPa 0,0 mm 8,0 km/h (2 Bft) W-SW 247 10 min 2 UV-I 673 W/m 24,1 km/h (4 Bft)
20.02.2010 13:00 4,6 C 69 % 995,7 hPa 0,0 mm 8,0 km/h (2 Bft) W-SW 247 10 min 2 UV-I 568 W/m 19,3 km/h (3 Bft)
20.02.2010 13:10 4,3 C 69 % 995,8 hPa 0,0 mm 8,0 km/h (2 Bft) W-SW 247 0 min 1 UV-I 158 W/m 20,9 km/h (4 Bft)
20.02.2010 13:20 4,0 C 70 % 995,7 hPa 0,0 mm 11,3 km/h (2 Bft) W-SW 247 0 min 1 UV-I 179 W/m 24,1 km/h (4 Bft)
20.02.2010 13:30 3,9 C 70 % 995,7 hPa 0,0 mm 8,0 km/h (2 Bft) W-SW 247 0 min 1 UV-I 171 W/m 22,5 km/h (4 Bft)
20.02.2010 13:40 3,9 C 71 % 995,7 hPa 0,0 mm 6,4 km/h (2 Bft) W-SW 247 0 min 1 UV-I 199 W/m 19,3 km/h (3 Bft)
20.02.2010 13:50 3,9 C 71 % 995,8 hPa 0,0 mm 6,4 km/h (2 Bft) S-SW 202 0 min 1 UV-I 193 W/m 16,1 km/h (3 Bft)
20.02.2010 14:00 4,1 C 70 % 995,8 hPa 0,0 mm 8,0 km/h (2 Bft) W-SW 247 0 min 1 UV-I 123 W/m 19,3 km/h (3 Bft)
20.02.2010 14:10 3,9 C 69 % 995,9 hPa 0,0 mm 9,7 km/h (2 Bft) W-SW 247 0 min 0 UV-I 76 W/m 24,1 km/h (4 Bft)
20.02.2010 14:20 3,6 C 69 % 995,8 hPa 0,0 mm 8,0 km/h (2 Bft) W-SW 247 0 min 1 UV-I 135 W/m 22,5 km/h (4 Bft)
20.02.2010 14:30 3,6 C 72 % 995,8 hPa 0,0 mm 6,4 km/h (2 Bft) W-SW 247 0 min 1 UV-I 144 W/m 20,9 km/h (4 Bft)
20.02.2010 14:40 3,7 C 72 % 995,8 hPa 0,0 mm 8,0 km/h (2 Bft) SW 225 0 min 1 UV-I 120 W/m 20,9 km/h (4 Bft)
20.02.2010 14:50 3,8 C 71 % 995,9 hPa 0,0 mm 11,3 km/h (2 Bft) W-SW 247 0 min 1 UV-I 132 W/m 27,4 km/h (4 Bft)
20.02.2010 15:00 3,8 C 70 % 995,9 hPa 0,0 mm 9,7 km/h (2 Bft) W 270 10 min 1 UV-I 408 W/m 24,1 km/h (4 Bft)
20.02.2010 15:10 4,0 C 70 % 995,9 hPa 0,0 mm 9,7 km/h (2 Bft) W 270 10 min 1 UV-I 283 W/m 22,5 km/h (4 Bft)
20.02.2010 15:20 4,1 C 70 % 996,0 hPa 0,0 mm 8,0 km/h (2 Bft) W 270 10 min 1 UV-I 209 W/m 22,5 km/h (4 Bft)
20.02.2010 15:30 3,9 C 70 % 996,1 hPa 0,0 mm 8,0 km/h (2 Bft) W-SW 247 0 min 0 UV-I 134 W/m 27,4 km/h (4 Bft)
20.02.2010 15:40 3,8 C 71 % 996,2 hPa 0,0 mm 4,8 km/h (1 Bft) W 270 0 min 1 UV-I 156 W/m 19,3 km/h (3 Bft)
20.02.2010 15:50 3,4 C 76 % 996,2 hPa 0,0 mm 3,2 km/h (1 Bft) W-NW 292 0 min 0 UV-I 104 W/m 11,3 km/h (2 Bft)
20.02.2010 16:00 2,8 C 77 % 996,3 hPa 0,0 mm 6,7 km/h (2 Bft) N-NW 342 0 min 0 UV-I 24 W/m 22,5 km/h (4 Bft)
20.02.2010 16:10 2,3 C 81 % 996,4 hPa 0,0 mm 4,8 km/h (1 Bft) W-NW 292 0 min 0 UV-I 72 W/m 19,3 km/h (3 Bft)
20.02.2010 16:20 1,6 C 84 % 996,5 hPa 0,0 mm 4,8 km/h (1 Bft) W-NW 292 0 min 0 UV-I 47 W/m 19,3 km/h (3 Bft)
20.02.2010 16:30 1,3 C 87 % 996,5 hPa 0,0 mm 4,8 km/h (1 Bft) W 270 10 min 0 UV-I 127 W/m 16,1 km/h (3 Bft)
20.02.2010 16:40 1,3 C 88 % 996,5 hPa 0,3 mm 3,2 km/h (1 Bft) W 270 10 min 0 UV-I 141 W/m 11,3 km/h (2 Bft)
20.02.2010 16:50 1,4 C 88 % 996,7 hPa 0,0 mm 4,8 km/h (1 Bft) W-SW 247 0 min 0 UV-I 58 W/m 16,1 km/h (3 Bft)
20.02.2010 17:00 1,4 C 88 % 996,6 hPa 0,0 mm 4,8 km/h (1 Bft) W 270 0 min 0 UV-I 35 W/m 16,1 km/h (3 Bft)
20.02.2010 17:10 1,6 C 88 % 996,6 hPa 0,0 mm 3,2 km/h (1 Bft) SW 225 10 min 0 UV-I 67 W/m 11,3 km/h (2 Bft)
20.02.2010 17:20 1,6 C 88 % 996,7 hPa 0,0 mm 1,6 km/h (1 Bft) W 270 10 min 0 UV-I 42 W/m 6,4 km/h (2 Bft)
20.02.2010 17:30 1,7 C 87 % 996,8 hPa 0,0 mm 1,6 km/h (1 Bft) W 270 10 min 0 UV-I 33 W/m 8,0 km/h (2 Bft)
20.02.2010 17:40 1,6 C 87 % 996,8 hPa 0,0 mm 3,2 km/h (1 Bft) W 270 0 min 0 UV-I 14 W/m 11,3 km/h (2 Bft)
20.02.2010 17:50 1,5 C 87 % 996,9 hPa 0,0 mm 4,8 km/h (1 Bft) W-SW 247 0 min 0 UV-I 5 W/m 11,3 km/h (2 Bft)
20.02.2010 18:00 1,4 C 86 % 997,0 hPa 0,0 mm 3,2 km/h (1 Bft) W 270 0 min 0 UV-I 0 W/m 9,7 km/h (2 Bft)
20.02.2010 18:10 1,3 C 86 % 997,1 hPa 0,0 mm 1,6 km/h (1 Bft) W-SW 247 0 min 0 UV-I 0 W/m 6,4 km/h (2 Bft)
20.02.2010 18:20 1,3 C 85 % 997,2 hPa 0,0 mm 3,2 km/h (1 Bft) W 270 0 min 0 UV-I 0 W/m 8,0 km/h (2 Bft)
20.02.2010 18:30 1,3 C 85 % 997,3 hPa 0,0 mm 1,6 km/h (1 Bft) W-SW 247 0 min 0 UV-I 0 W/m 9,7 km/h (2 Bft)
20.02.2010 18:40 1,3 C 84 % 997,4 hPa 0,0 mm 1,6 km/h (1 Bft) SW 225 0 min 0 UV-I 0 W/m 8,0 km/h (2 Bft)
20.02.2010 18:50 1,3 C 83 % 997,4 hPa 0,0 mm 1,6 km/h (1 Bft) SW 225 0 min 0 UV-I 0 W/m 8,0 km/h (2 Bft)
20.02.2010 19:00 1,3 C 83 % 997,4 hPa 0,0 mm 1,6 km/h (1 Bft) SW 225 0 min 0 UV-I 0 W/m 6,4 km/h (2 Bft)
20.02.2010 19:10 1,3 C 83 % 997,4 hPa 0,0 mm 1,6 km/h (1 Bft) SW 225 0 min 0 UV-I 0 W/m 4,8 km/h (1 Bft)
20.02.2010 19:20 1,3 C 82 % 997,5 hPa 0,0 mm 1,6 km/h (1 Bft) SW 225 0 min 0 UV-I 0 W/m 8,0 km/h (2 Bft)
20.02.2010 19:30 1,2 C 82 % 997,6 hPa 0,0 mm 1,6 km/h (1 Bft) SW 225 0 min 0 UV-I 0 W/m 6,4 km/h (2 Bft)
20.02.2010 19:40 1,1 C 82 % 997,6 hPa 0,0 mm 1,6 km/h (1 Bft) W-SW 247 0 min 0 UV-I 0 W/m 6,4 km/h (2 Bft)
20.02.2010 19:50 1,0 C 82 % 997,7 hPa 0,0 mm 1,6 km/h (1 Bft) W-SW 247 0 min 0 UV-I 0 W/m 4,8 km/h (1 Bft)
20.02.2010 20:00 0,9 C 82 % 997,8 hPa 0,0 mm 0,0 km/h (0 Bft) SW 225 0 min 0 UV-I 0 W/m 4,8 km/h (1 Bft)
20.02.2010 20:10 0,8 C 82 % 997,9 hPa 0,0 mm 0,0 km/h (0 Bft) W-SW 247 0 min 0 UV-I 0 W/m 4,8 km/h (1 Bft)
20.02.2010 20:20 0,7 C 82 % 998,0 hPa 0,0 mm 0,0 km/h (0 Bft) SW 225 0 min 0 UV-I 0 W/m 4,8 km/h (1 Bft)
20.02.2010 20:30 0,6 C 82 % 998,1 hPa 0,0 mm 0,0 km/h (0 Bft) SW 225 0 min 0 UV-I 0 W/m 1,6 km/h (1 Bft)
20.02.2010 20:40 0,6 C 82 % 998,1 hPa 0,0 mm 0,0 km/h (0 Bft) SW 225 0 min 0 UV-I 0 W/m 3,2 km/h (1 Bft)
20.02.2010 20:50 0,4 C 82 % 998,2 hPa 0,0 mm 0,0 km/h (0 Bft) SW 225 0 min 0 UV-I 0 W/m 3,2 km/h (1 Bft)
20.02.2010 21:00 0,3 C 83 % 998,2 hPa 0,0 mm 1,6 km/h (1 Bft) SW 225 0 min 0 UV-I 0 W/m 6,4 km/h (2 Bft)
20.02.2010 21:10 0,3 C 83 % 998,2 hPa 0,0 mm 1,6 km/h (1 Bft) W-SW 247 0 min 0 UV-I 0 W/m 9,7 km/h (2 Bft)
20.02.2010 21:20 0,3 C 83 % 998,3 hPa 0,0 mm 1,6 km/h (1 Bft) SW 225 0 min 0 UV-I 0 W/m 9,7 km/h (2 Bft)
20.02.2010 21:30 0,4 C 84 % 998,4 hPa 0,0 mm 1,6 km/h (1 Bft) W-SW 247 0 min 0 UV-I 0 W/m 9,7 km/h (2 Bft)
20.02.2010 21:40 0,4 C 84 % 998,4 hPa 0,0 mm 3,2 km/h (1 Bft) W-SW 247 0 min 0 UV-I 0 W/m 11,3 km/h (2 Bft)
20.02.2010 21:50 0,4 C 83 % 998,5 hPa 0,0 mm 1,6 km/h (1 Bft) SW 225 0 min 0 UV-I 0 W/m 8,0 km/h (2 Bft)
20.02.2010 22:00 0,4 C 83 % 998,6 hPa 0,0 mm 1,6 km/h (1 Bft) SW 225 0 min 0 UV-I 0 W/m 6,4 km/h (2 Bft)
20.02.2010 22:10 0,4 C 84 % 998,7 hPa 0,0 mm 1,6 km/h (1 Bft) S-SW 202 0 min 0 UV-I 0 W/m 6,4 km/h (2 Bft)
20.02.2010 22:20 0,4 C 84 % 998,6 hPa 0,0 mm 1,6 km/h (1 Bft) SW 225 0 min 0 UV-I 0 W/m 8,0 km/h (2 Bft)
20.02.2010 22:30 0,6 C 84 % 998,6 hPa 0,0 mm 3,2 km/h (1 Bft) W-SW 247 0 min 0 UV-I 0 W/m 14,5 km/h (3 Bft)
20.02.2010 22:40 0,6 C 84 % 998,7 hPa 0,0 mm 1,6 km/h (1 Bft) W-SW 247 0 min 0 UV-I 0 W/m 6,4 km/h (2 Bft)
20.02.2010 22:50 0,7 C 84 % 998,8 hPa 0,0 mm 1,6 km/h (1 Bft) SW 225 0 min 0 UV-I 0 W/m 6,4 km/h (2 Bft)
20.02.2010 23:00 0,7 C 84 % 998,8 hPa 0,0 mm 1,6 km/h (1 Bft) SW 225 0 min 0 UV-I 0 W/m 9,7 km/h (2 Bft)
20.02.2010 23:10 0,7 C 85 % 998,8 hPa 0,0 mm 3,2 km/h (1 Bft) W-SW 247 0 min 0 UV-I 0 W/m 11,3 km/h (2 Bft)
20.02.2010 23:20 0,7 C 85 % 999,0 hPa 0,0 mm 4,8 km/h (1 Bft) SW 225 0 min 0 UV-I 0 W/m 17,7 km/h (3 Bft)
20.02.2010 23:30 0,8 C 86 % 999,2 hPa 0,0 mm 6,4 km/h (2 Bft) W-SW 247 0 min 0 UV-I 0 W/m 20,9 km/h (4 Bft)
20.02.2010 23:40 0,9 C 86 % 999,3 hPa 0,0 mm 4,8 km/h (1 Bft) W-SW 247 0 min 0 UV-I 0 W/m 16,1 km/h (3 Bft)
20.02.2010 23:50 0,9 C 87 % 999,3 hPa 0,0 mm 4,8 km/h (1 Bft) W-SW 247 0 min 0 UV-I 0 W/m 16,1 km/h (3 Bft)
_ Min-Zeit 03:30 13:00 00:00 - 02:20 - - - - - 20:30
Minimum _ -0,1 C 69 % 994,6 hPa - 0,0 km/h (0 Bft) - - - - - 1,6 km/h (1 Bft)
_ Max-Zeit 13:00 16:40 23:40 16:40 12:00 - - 08:20 12:40 12:50 14:50
Maximum _ 4,7 C 88 % 999,3 hPa 0,3 mm 11,3 km/h
W-SW (2 Bft)
- - 10 min 2 UV-I 673 W/m 27,4 km/h
W-SW (4 Bft)
Durchschnitt _ 1,6 C 80 % 996,1 hPa #0,3 mm 3,8 km/h (1 Bft) SW - #4:20 h 1 UV-I 182 W/m 12,7 km/h (3 Bft)